Regional Weather Roundup
Issued by NWS

Home | Current Version | Previous Version | Graphics & Text | Print | Product List | Glossary On
Versions: 1 2 3 4 5 6 7 8 9 10 11 12 13 14 15 16 17 18 19 20 21 22 23 24 25 26 27 28 29 30 31 32 33 34 35 36 37 38 39 40 41 42 43 44 45 46 47 48 49 50
000
ASUS43 KBIS 210031
RWRND
NORTH DAKOTA REGIONAL WEATHER ROUNDUP
NATIONAL WEATHER SERVICE EASTERN NORTH DAKOTA/GRAND FORKS ND
700 PM CDT SUN MAY 20 2018

  NOTE: "FAIR" INDICATES FEW OR NO CLOUDS BELOW 12,000 FEET WITH NO
  SIGNIFICANT WEATHER AND/OR OBSTRUCTIONS TO VISIBILITY.

NDZ001>003-009>011-017-210100-
...NORTHWEST NORTH DAKOTA...

CITY           SKY/WX    TMP DP  RH WIND       PRES   REMARKS
WILLISTON      FAIR      72  30  21 S10G24    30.05F
6HR MIN TEMP:  67; 6HR MAX TEMP:  73;

MINOT          FAIR      74  28  18 S15G21    30.09F
MINOT AFB      FAIR      73  29  20 S14       30.07F
6HR MIN TEMP:  70; 6HR MAX TEMP:  74;

$$

NDZ018>021-031>035-040>046-210100-
...SOUTHWEST NORTH DAKOTA...

CITY           SKY/WX    TMP DP  RH WIND       PRES   REMARKS
BISMARCK       FAIR      69  33  26 SE16      30.13F
DICKINSON      FAIR      65  29  25 SE17      30.09S
GARRISON         N/A     69  31  24 S13       30.10F
HETTINGER      FAIR      63  34  33 SE16      30.12F
$$

NDZ004>008-012>016-024-026-027-054-210100-
...NORTHEAST NORTH DAKOTA...

CITY           SKY/WX    TMP DP  RH WIND       PRES   REMARKS
GRAND FORKS    FAIR      73  36  25 SE8       30.12F
GRAND FORKS AF FAIR      73  35  25 S5        30.12F
DEVILS LAKE    FAIR      70  34  26 SE5       30.14F
$$

NDZ022-023-025-028>030-036>039-047>053-210100-
...SOUTHEAST NORTH DAKOTA...

CITY           SKY/WX    TMP DP  RH WIND       PRES   REMARKS
JAMESTOWN      FAIR      69  37  30 MISG      30.13F
FARGO          FAIR      72  34  24 VRB6      30.13F
WAHPETON       FAIR      70  23  17 E9        30.13S
$$




USA.gov is the U.S. government's official web portal to all federal, state and local government web resources and services.